Regional Weather Roundup
Issued by NWS

Home | Current Version | Previous Version | Graphics & Text | Print | Product List | Glossary On
Versions: 1 2 3 4 5 6 7 8 9 10 11 12 13 14 15 16 17 18 19 20 21 22 23 24 25 26 27 28 29 30 31 32 33 34 35 36 37 38 39 40 41 42 43 44 45 46 47 48 49 50
000
ASUS43 KIND 011809
RWRIN

WEATHER ROUNDUP FOR INDIANA
NATIONAL WEATHER SERVICE INDIANAPOLIS IN
200 PM EDT WED OCT 01 2014

NOTE: "FAIR" INDICATES FEW OR NO CLOUDS BELOW 12,000 FEET WITH NO
SIGNIFICANT WEATHER AND/OR OBSTRUCTIONS TO VISIBILITY.

* - STATION DOES NOT REPORT WEATHER SUCH AS PRECIPITATION OR FOG.

+ - STATION NOT QUALITY CONTROLLED BY THE NATIONAL WEATHER SERVICE.
    USE DATA WITH CAUTION...ESPECIALLY DEWPOINT AND RELATIVE
    HUMIDITY OBSERVATIONS.

INZ001>003-010>013-019-020-011900-
NORTHWEST INDIANA

CITY           SKY/WX    TMP DP  RH WIND       PRES   REMARKS
GARY /AIRPORT/ MOSUNNY   68  50  52 SE9       30.00F
KNOX *+        PTSUNNY   64  49  58 S8        30.01F
LA PORTE +     SUNNY     66  52  59 SE7       30.02F
6HR MIN TEMP:  49; 6HR MAX TEMP:  67;

MICHIGAN CITY+ SUNNY     64  46  52 S6        30.01F
MONTICELLO +   SUNNY     66  53  64 E6        30.00F
RENSSELAER +   MOSUNNY   68  54  60 E7        30.00F
VALPARAISO     SUNNY     65  49  56 E9        30.01F
6HR MIN TEMP:  45; 6HR MAX TEMP:  66;


$$

LMZ046-743>745-011900-
SOUTHERN LAKE MICHIGAN

STATION/POSITION TIME  TEMP WIND        PRES
                       AIR  DIR/SP/G
                 (UTC) (F)  (DEG/KT/KT) (MB)
MICHIGAN CITY    1800   63  130/  6/ 10   N/A

$$

INZ004-005-014>016-021>024-011900-
NORTH CENTRAL INDIANA

CITY           SKY/WX    TMP DP  RH WIND       PRES   REMARKS
ELKHART        PTSUNNY   63  48  59 SE8       30.04F
GOSHEN         MOSUNNY   64  50  60 S8        30.03
6HR MIN TEMP:  46; 6HR MAX TEMP:  64;

LOGANSPORT +   SUNNY     63  50  63 E6        30.03F
PERU/GRISSOM   SUNNY     64  55  75 SE3       30.02F
6HR MIN TEMP:  47; 6HR MAX TEMP:  64;

ROCHESTER +    MOSUNNY   63  52  67 SE8       30.04F
SOUTH BEND     SUNNY     66  48  52 S7G16     30.03F
WARSAW +       MOSUNNY   63  50  63 S5        30.04F

$$

INZ006>009-017-018-025>027-011900-
NORTHEAST INDIANA

CITY           SKY/WX    TMP DP  RH WIND       PRES   REMARKS
ANGOLA *+      CLOUDY    61  52  72 SE6       30.05F
AUBURN +       MOSUNNY   63  46  55 SE5       30.05F
FORT WAYNE     MOSUNNY   61  51  70 SE7       30.05F
6HR MIN TEMP:  50; 6HR MAX TEMP:  62;

HUNTINGTON +   PTSUNNY   61  52  73 E3        30.04F
6HR MIN TEMP:  44; 6HR MAX TEMP:  61;


$$

INZ028-029-035-036-043>045-051>053-011900-
WEST CENTRAL INDIANA

CITY           SKY/WX    TMP DP  RH WIND       PRES   REMARKS
CRAWFORDSVL +    N/A     73  54  49 S5        29.98
GREENCASTLE +  SUNNY     72  59  64 S3        30.00F
LAFAYETTE      MOSUNNY   69  55  60 SE7       29.99F
6HR MIN TEMP:  44; 6HR MAX TEMP:  69;

TERRE HAUTE    SUNNY     77  58  51 CALM      29.97F
6HR MIN TEMP:  50; 6HR MAX TEMP:  77;


$$

INZ030>032-037>040-046>048-054>057-064-065-011900-
CENTRAL INDIANA

CITY           SKY/WX    TMP DP  RH WIND       PRES   REMARKS
ANDERSON       SUNNY     64  50  59 SE9       30.04F
CP ATTERBURY + SUNNY     73  55  53 CALM      30.01S
COLUMBUS       SUNNY     73  55  53 CALM      30.01S
FRANKFORT +    SUNNY     73  53  49 SE5       30.02F
INDIANAPOLIS   PTSUNNY   70  54  56 VRB7      30.00F
6HR MIN TEMP:  50; 6HR MAX TEMP:  70;

-EAGLE CREEK   MOSUNNY   70  54  56 E6        30.00F
6HR MIN TEMP:  48; 6HR MAX TEMP:  71;

KOKOMO *+      SUNNY     63  52  67 SE6       30.03F
MARION +       SUNNY     62  49  63 SE3       30.04F
MT COMFORT *+  SUNNY     72  43  35 E3        30.02F
SHELBYVILLE    MOSUNNY   74  54  49 CALM      30.01F
6HR MIN TEMP:  45; 6HR MAX TEMP:  74;

ZIONSVILLE +   MOSUNNY   69  52  54 E5        30.02F
6HR MIN TEMP:  45; 6HR MAX TEMP:  69;


$$

INZ033-034-041-042-049-050-058-059-011900-
EAST CENTRAL INDIANA

CITY           SKY/WX    TMP DP  RH WIND       PRES   REMARKS
MUNCIE         SUNNY     63  51  65 S7        30.04F
6HR MIN TEMP:  48; 6HR MAX TEMP:  63;


$$

INZ060-061-067>069-081>083-085>088-011900-
SOUTHWEST INDIANA

CITY           SKY/WX    TMP DP  RH WIND       PRES   REMARKS
EVANSVILLE     SUNNY     83  57  41 SW6       29.95F
6HR MIN TEMP:  59; 6HR MAX TEMP:  83;

WASHINGTON +   SUNNY     80  60  49 S6        29.95F
6HR MIN TEMP:  51; 6HR MAX TEMP:  81;


$$

INZ062-063-066-070>080-084-089>092-011900-
SOUTH CENTRAL AND SOUTHEAST INDIANA

CITY           SKY/WX    TMP DP  RH WIND       PRES   REMARKS
BLOOMINGTON    SUNNY     73  59  61 E6        29.99F
6HR MIN TEMP:  51; 6HR MAX TEMP:  73;

SEYMOUR +        N/A     77  57  50 CALM      29.99  HAZE

$$




USA.gov is the U.S. government's official web portal to all federal, state and local government web resources and services.